Hourly Weather Roundup
Issued by NWS Central Illinois

Home | Current Version | Previous Version | Text Only | Print | Product List | Glossary On
Versions: 1 2 3 4 5 6 7 8 9 10 11 12 13 14 15 16 17 18 19 20 21 22 23 24 25 26 27 28 29 30 31 32 33 34 35 36 37 38 39 40 41 42 43 44 45 46 47 48 49 50
000
NZUS43 KILX 251910
HWRILX

Area Weather Roundup
National Weather Service Lincoln IL
200 PM CDT MON SEP 25 2017

NOTE:  "FAIR" indicates few or no clouds below 12,000 feet, with
       no sigificant weather and/or obstructions to visibility.


CITY           SKY/WX    TMP DP  RH WIND       PRES   REMARKS
Bloomington    MOSUNNY   89  61  38 SW8       29.97F HX  89
Champaign      MOSUNNY   91  57  31 VRB3      29.97F HX  89
Danville       SUNNY     89  58  35 W3        29.96F HX  88
Decatur        MOSUNNY   87  61  41 S5        29.97F HX  87
Effingham      MOSUNNY   91  62  37 SW7       29.98F HX  91
Flora          SUNNY     92  63  38 SW7       29.97F HX  92
Galesburg      PTSUNNY   89  65  45 S7        29.94F HX  90
Jacksonville   SUNNY     90  60  36 SE3       29.93F HX  90
Lacon          SUNNY     91  62  38 SW9       29.94F HX  91
Lawrenceville  SUNNY     91  64  40 S6        29.98F HX  92
Litchfield     MOSUNNY   87  64  45 SW6       29.96F HX  89
$$


CITY           SKY/WX    TMP DP  RH WIND       PRES   REMARKS
Lincoln        SUNNY     92  61  35 S6        29.95F HX  91
Macomb         MOSUNNY   89  61  38 S6        29.96F HX  89
Mattoon        MOSUNNY   89  62  40 S7        29.96F HX  89
Mt Carmel AP   MOSUNNY   89  59  37 S6        29.98F HX  88
Olney-Noble AP SUNNY     89  55  31 S6        29.98F HX  87
Paris AP       SUNNY     90  61  38 SW3       29.98F HX  89
Peoria         MOSUNNY   90  62  39 SE7       29.94F HX  90
Pontiac        SUNNY     90  59  34 S8        29.96F HX  89
Rantoul        PTSUNNY   90  62  39 E3        29.97F HX  90
Robinson       SUNNY     86  63  46 CALM      29.98F HX  87
Springfield    MOSUNNY   92  63  38 S8        29.95F HX  93
Taylorville    SUNNY     89  62  40 S8        29.96F HX  90
$$

...REGIONAL REPORTS...


CITY           SKY/WX    TMP DP  RH WIND       PRES   REMARKS
Chicago O`Hare MOSUNNY   90  55  30 VRB5      29.95F HX  88
Kankakee       MOSUNNY   89  60  37 SE8       29.97F HX  88
Moline         SUNNY     89  63  41 S9        29.91F HX  90
Mount Sterling PTSUNNY   88  66  48 S8        29.93F HX  90
Mount Vernon     N/A     91  64  40 S6        29.97F HX  92
Pittsfield     MOSUNNY   90  66  45 S3        29.95F HX  92
Quincy         MOSUNNY   86  63  45 SE7       29.93F HX  87
Rockford       MOSUNNY   91  55  29 VRB3      29.95F HX  89
$$


CITY           SKY/WX    TMP DP  RH WIND       PRES   REMARKS
Burlington     SUNNY     89  66  46 S8G17     29.92F HX  91
Cedar Rapids   SUNNY     89  62  40 SE10G24   29.90F HX  89
Des Moines     LGT RAIN  85  67  54 E6        29.86F HX  87
Kirksville     PTSUNNY   86  65  49 S10       29.93F HX  88
Ottumwa        SUNNY     86  66  51 S10       29.91F HX  88
St Louis       MOSUNNY   88  64  44 VRB3      29.95F HX  89
$$


CITY           SKY/WX    TMP DP  RH WIND       PRES   REMARKS
Terre Haute    MOSUNNY   90  60  36 CALM      29.98F HX  89
Evansville     MOSUNNY   89  63  41 CALM      29.98F HX  90
Indianapolis   MOSUNNY   87  58  37 E6        30.00F HX  86
Lafayette      SUNNY     87  59  38 MISG      29.98F HX  86
Madison        MOSUNNY   89  62  40 SE9       29.93F HX  89
Milwaukee      MOSUNNY   83  63  50 SE13      29.96F HX  84
$$





USA.gov is the U.S. government's official web portal to all federal, state and local government web resources and services.